Regional Weather Roundup
Issued by NWS Wakefield, VA

Home | Current Version | Previous Version | Graphics & Text | Print | Product List | Glossary On
Versions: 1 2 3 4 5 6 7 8 9 10 11 12 13 14 15 16 17 18 19 20 21 22 23 24 25 26 27 28 29 30 31 32 33 34 35 36 37 38 39 40 41 42 43 44 45 46 47 48 49
000
ASUS41 KAKQ 251910
RWRAKQ

REGIONAL WEATHER ROUNDUP
NATIONAL WEATHER SERVICE WAKEFIELD VA
200 PM EST SUN JAN 25 2015

Note: "fair" indicates few or no clouds below 12,000 feet with no
significant weather and/or obstructions to visibility. * = Denotes
station may not report precipitation (e.g., rain,snow,etc.),
thunder or fog.

VAZ042-051-052>054-056-252000-
NORTHERN VIRGINIA

CITY           SKY/WX    TMP DP  RH WIND       PRES   REMARKS
WASH NATIONAL  CLOUDY    50  30  46 SW8       29.83F
DULLES         CLOUDY    45  30  55 S3        29.81F
FORT BELVOIR   CLOUDY    49  30  48 SW8       29.84S
QUANTICO       CLOUDY    43  35  73 S9        29.85F
FREDERICKSBRG* PTSUNNY   52  32  46 S7        29.82F
STAFFORD*      PTSUNNY   50  30  46 S3        29.87F
WARRENTON      CLOUDY    48  37  66 S6        29.82F
CULPEPER*      CLOUDY    46  34  61 SW7       29.82F
MANASSAS*      SUNNY     46  32  57 S10       29.83S
LEESBURG*      CLOUDY    46  34  61 SW5       29.82F
WINCHESTER     CLOUDY    43  28  56 CALM      29.79F
FRONT ROYAL*   CLOUDY    43  32  65 SW5       29.79F
LURAY*         CLOUDY    43  34  70 SW6       29.79F
$$

VAZ048-049-060>072-079>083-252000-
CENTRAL AND SOUTH CENTRAL VIRGINIA

CITY           SKY/WX    TMP DP  RH WIND       PRES   REMARKS
RICHMOND       PTSUNNY   53  32  44 S10       29.85F
CHESTERFIELD*  FAIR      54  28  37 S6        29.86F
PETERSBURG*    SUNNY     54  31  42 SW5       29.85F
HANOVER        SUNNY     52  32  46 VRB5      29.85F
TAPPAHANNOCK*  SUNNY     51  26  37 SW7       29.85F
QUINTON*       FAIR      51  30  45 S5        29.85F
CHARLOTTSVILLE CLOUDY    45  32  60 S10       29.80F
GORDONSVILLE*  FAIR      46  32  59 SW7       29.80F
ORANGE*        CLOUDY    46  32  57 S7        29.83F
LOUISA*        PTSUNNY   50  34  53 SW6       29.80F
BUMPASS*       FAIR      49  32  51 S6        29.82F
FARMVILLE*     MOSUNNY   54  33  45 S9        29.82F
CREWE*         FAIR      52  32  45 SW6       29.83F
FORT PICKETT*  FAIR      52  34  51 S9        29.84F
CHASE CITY*    FAIR      55  35  47 CALM      29.84F
CLARKSVILLE*   FAIR      52  32  46 SW6       29.84F
SOUTH HILL*    SUNNY     51  33  49 SW8       29.91F
LAWRENCEVILLE* FAIR      51  35  53 CALM      29.86F
EMPORIA*       SUNNY     50  32  50 S7        29.88F
$$

VAZ088>098-252000-
SOUTHEAST VIRGINIA

CITY           SKY/WX    TMP DP  RH WIND       PRES   REMARKS
NORFOLK        SUNNY     51  28  41 MISG      29.87F
VIRGINIA BEACH MOSUNNY   52  30  43 S8        29.88S
NORFOLK NAVAL  MOSUNNY   54  29  38 W6        29.89F
WEST POINT*    SUNNY     54  29  38 SW6       29.87F
SALUDA*        FAIR      50  31  47 N3        29.85F
NEWPORT NEWS   SUNNY     53  31  42 SW9       29.87F
LANGLEY AFB    SUNNY     51  33  50 W10       29.87F
FORT EUSTIS    SUNNY     51  37  58 VRB6      29.86F
WILLIAMSBURG*    N/A     55  36  47 SE6       29.88F
HR EXEC AP*    FAIR      52  30  43 W8        29.90F
FRANKLIN*      SUNNY     50  32  49 S3        29.88F
WAKEFIELD      SUNNY     52  31  44 SW6       29.87F
$$

VAZ020-022-025-037-045-252000-
WEST CENTRAL AND SOUTHWEST VIRGINIA

CITY           SKY/WX    TMP DP  RH WIND       PRES   REMARKS
STAUNTON*      CLOUDY    44  32  62 S8        29.80F
WAYNESBORO*    FAIR      42  32  66 SW6       29.78F
HOT SPRINGS VA CLOUDY    32  32 100 CALM      29.71S
LYNCHBURG      PTSUNNY   49  32  52 S9        29.82F
DANVILLE       SUNNY     55  30  38 VRB5      29.83F
SOUTH BOSTON*  FAIR      55  30  38 S8        29.84F
MARTINSVILLE   MOSUNNY   55  29  36 S5        29.82F
ROANOKE        PTSUNNY   47  30  51 NE3       29.82F
BLACKSBURG     PTSUNNY   44  31  58 SW3       29.81F
DUBLIN*        CLOUDY    47  33  56 CALM      29.78F
MARION*        PTSUNNY   47  31  54 CALM      29.76F
HILLSVILLE*    PTSUNNY   47  29  50 S7G17     29.75F
RICHLANDS*     FAIR      47  27  44 SW10      29.73F
WISE*          PTSUNNY   45  30  57 S6        29.73F
ABINGDON*      MOSUNNY   51  29  43 CALM      29.74F
$$

MDZ021>025-VAZ099-100-252000-
SOUTHERN MARYLAND AND THE DELMARVA PENINSULA

CITY           SKY/WX    TMP DP  RH WIND       PRES   REMARKS
PATUXENT RIVER PTSUNNY   49  29  46 W9        29.84S
BAY BRIDGE APT   N/A     46  32  57 S5        29.83F
LEONARDTOWN    SUNNY     48  30  49 SW5       29.85S
DOVER          CLOUDY    48  32  54 W10       29.78F
GEORGETOWN     CLOUDY    50  31  48 VRB3      29.83F
EASTON         CLOUDY    48  32  53 SW7       29.86F
CAMBRIDGE      CLOUDY    52  32  46 SW5       29.83F
SALISBURY      SUNNY     51  31  46 W12       29.84F
OCEAN CITY     MOSUNNY   49  29  46 W10       29.84F
WALLOPS ISLAND SUNNY     49  28  44 W9        29.86F
ACCOMACK*      SUNNY     48  27  43 SW15      29.87S
$$

NCZ012>017-030>032-252000-
NORTH CENTRAL AND EASTERN NORTH CAROLINA

CITY           SKY/WX    TMP DP  RH WIND       PRES   REMARKS
ROANOKE RAPIDS FAIR      52  34  50 SW5       29.88F
RALEIGH        MOSUNNY   54  33  45 S7        29.87F
ELIZABETH CITY SUNNY     50  32  50 S6        29.90F
AHOSKIE*       SUNNY     50  31  48 CALM      29.89F
EDENTON*       SUNNY     51  31  47 S6        29.90F
CURRITUCK*     SUNNY     51  28  40 SW8       29.90F
KILL DEVIL HLS SUNNY     49  32  53 CALM      29.89F
MANTEO         SUNNY     46  34  61 S10       29.91F
CAPE HATTERAS  SUNNY     48  32  53 VRB5      29.93F
TARBORO*       FAIR      53  32  45 W5        29.91F
GOLDSBORO      SUNNY     54  39  57 SW5       29.88F
WASHINGTON     SUNNY     51  31  46 W6        29.91F
GREENVILLE     SUNNY     54  32  43 SW6       29.93F
NEW BERN       SUNNY     55  32  41 SW6       29.93F
WILMINGTON     SUNNY     55  34  45 CALM      29.92F
$$

VAZ048-252000-
ELSEWHERE

CITY           SKY/WX    TMP DP  RH WIND       PRES   REMARKS
HARRISBURG PA  CLOUDY    37  31  78 NW7       29.80F
BALTIMORE      CLOUDY    48  30  49 W9G16     29.81F
ANNAPOLIS      PTSUNNY   48  29  47 NW6       29.82F
ANDREWS AFB    CLOUDY    48  30  49 W8        29.82S
PHILADELPHIA   PTSUNNY   46  29  51 W17       29.81S
HENDERSON NC   SUNNY     54  31  41 S7        29.86F
GREENSBORO     PTSUNNY   52  31  44 S10       29.82F
ROCKY MOUNT    SUNNY     53  34  48 SW8       29.90F
$$

VAZ100-252000-
MARINE

STATION/POSITION TIME  TEMP    WIND        PRES    WAVE   SWELL
                       AIR SEA DIR/SP/G            HT/PER HT/PER
                 (UTC) (F)     (DEG/KT/KT) (MB)    (FT/S) (FT/S)
BRANDYWINE LGT   1900   44 37  290/  7/  8 1010.0F
CAPE MAY NJ      1900   42 39  260/  5/  6 1009.6F
LEWES DE         1900   48 38  270/  9/ 12 1009.9S
15NM E FENWICK I 1900   43 43              1010.2F   3/11
OCEAN-CITY-INLET 1900   47 40  280/  6/ 10 1010.1S
WACHAPREAGUE VA  1900   49 40  250/  7/ 13 1011.4F
THOMAS POINT MD  1900   43 37  170/  5/  6 1011.2F
GOOSES REEF MD   1900   44     VRB  6/  8  1009.3S
COVE POINT MD    1900   47     280/  7/ 11 1010.5R
SOLOMONS ISLAND  1900      38                N/A
BISHOPS HEAD MD  1900   44 41  220/ 11/ 13 1010.2R
PINEY POINT MD   1900          180/  5/  5   N/A
POTOMAC MD       1900   44     200/  4/  6 1010.3R
CAMBRIDGE MD     1900   48 36  220/  5/  8 1010.0R
LEWISETTA VA     1900   48 39  220/  6/  8 1010.4F
RAPPAHANNOCK LGT 1900          180/  9/ 10 1012.1F
STINGRAY PT      1900   42     150/ 10/ 10 1011.7F
YORK RVR RNG VA  1900   42     150/  8/  9 1011.0F
YORKTOWN VA      1900   50 40  210/  3/  6 1011.1F
JAMESTOWN VA     1900   47     170/  2/  4   N/A
DOMINION TERM VA 1900   46     200/  6/  6 1011.9F
KIPTOPEKE VA     1900      45  220/  1/  2   N/A
CHES BAY BRIDGE  1900   43 42   70/  4/  4 1011.6R
CAPE HENRY VA    1900   44      90/  9/ 10 1010.6F
CHESAPEAKE LGHT  1800   45     210/  8/  9 1013.2F
WILLOUBY STN VA  1900   51     220/  2/  2 1012.4F
S CRANEY ISL VA  1900           10/  5/  6 1011.7F
CAPE HENRY BUOY  1900      45                N/A     2/11   2/11
1ST LANDING BUOY 1900   45     350/  2/  4 1011.7F
CAPE CHARLES BUO 1900      44                N/A     2/11   2/11
OFFSHORE WE BUOY 1900      47                N/A     3/ 8   3/ 8
64NM E OF VA BCH 1900   47 53  250/  4/  6 1012.0F   4/10   5/10
DUCK PIER NC     1900   48 43  130/  7/  7 1011.9F
44100 DUCK FRF   1900      45                N/A     3/11   2/11
44056 DUCK FRF   1900      45                N/A     2/ 8   2/11
OREGON INLET NC  1900   47 46  110/  5/  6 1012.9F
HATTERAS NC      1900   47 53  320/  3/  5 1013.9S



USA.gov is the U.S. government's official web portal to all federal, state and local government web resources and services.